Tracking 18942 objects as of 18-Jan-2018
HD Live streaming from Space Station
objects crossing your sky now

DUMMY SAT

Track DUMMY SAT now!
10-day predictions
DUMMY SAT is classified as:


NORAD ID: 40073
Int'l Code: 2014-037E
Perigee: 629.6 km
Apogee: 639.7 km
Inclination: 98.4 °
Period: 97.3 minutes
Semi major axis: 7005 km
RCS: Unknown
Launch date: July 8, 2014
Source: Commonwealth of Independent States (former USSR) (CIS)
Launch site: TYURATAM MISSILE AND SPACE COMPLEX (TTMTR)
aabbcc
Your satellite tracking list
Your tracking list is empty




NASA's NSSDC Master Catalog

Two Line Element Set (TLE):
1 40073U 14037E   18018.21000444 -.00000005  00000-0  67912-5 0  9998
2 40073  98.3560 142.5726 0007201  87.3850 272.8185 14.80572395190776
Source of the keplerian elements: AFSPC